Regional Weather Roundup
Issued by NWS

Home | Current Version | Previous Version | Graphics & Text | Print | Product List | Glossary On
Versions: 1 2 3 4 5 6 7 8 9 10 11 12 13 14 15 16 17 18 19 20 21 22 23 24 25 26 27 28 29 30 31 32 33 34 35 36 37 38 39 40 41 42 43 44 45 46 47 48 49 50
000
ASUS45 KSLC 220510
RWRUT

UTAH REGIONAL WEATHER ROUNDUP
NATIONAL WEATHER SERVICE SALT LAKE CITY UT
1000 PM MST SUN DEC 21 2014

UTZ001>011-023>025-220600-

NORTHERN UTAH

CITY           SKY/WX    TMP DP  RH WIND       PRES   REMARKS
BRIGHAM CITY   CLOUDY    43  33  68 W8        30.01S
HILL AFB       CLOUDY    41  35  78 N7        30.03R
LOGAN          CLOUDY    43  32  65 NW13      29.98R
OGDEN          CLOUDY    43  35  73 N7        30.02R
PROVO AIRPORT  CLOUDY    43  39  87 NW7       30.03R
SALT LAKE CITY CLOUDY    44  38  79 NW7       30.02R
VERNAL         CLOUDY    35  30  82 NW3       29.85S
WENDOVER       CLOUDY    50  36  57 NW25G33   30.03R
HEBER CITY     MIX PCPN  41  34  75 CALM      29.96R
WEST JORDAN    CLOUDY    43  41  93 NW12      30.03R

$$

UTZ012>022-026-027-220600-

SOUTHERN/CENTRAL UTAH

CITY           SKY/WX    TMP DP  RH WIND       PRES   REMARKS
BLANDING       MOCLDY    32  30  94 NE6       30.05R WCI  26
BRYCE CANYON   PTCLDY    36  30  79 CALM      30.09R
CEDAR CITY     CLOUDY    41  33  73 SE9       30.08R
DELTA          CLOUDY    43  37  78 NE8       30.04R
MILFORD        CLOUDY    42  34  73 SW9       30.05R
MOAB/CYNLANDS  CLEAR     32  30  92 CALM      29.93F
PRICE          FRZ RAIN  33  30  88 N8        29.94R FOG     WCI  26
ST GEORGE      CLOUDY    45  34  65 SW8       30.09S
KANAB          PTCLDY    34  34 100 CALM      30.11S

$$

REGIONAL REPORTS     COLORADO/ARIZONA

CITY           SKY/WX    TMP DP  RH WIND       PRES   REMARKS
CRAIG, CO      CLOUDY    37  33  85 W14       29.80R WCI  28
GRAND JUNCTION CLOUDY    35  33  92 CALM      29.89F
RIFLE          LGT RAIN  36  31  82 NW18G25   29.82F WCI  26
MONTROSE       CLOUDY    31  31 100 E5        29.91R FOG     WCI  26
CORTEZ         CLEAR     33  29  85 E5        29.99R WCI  29
PAGE, AZ       PTCLDY    40  31  70 CALM      30.02R
GRAND CANYON   MOCLDY    37  31  78 CALM      30.14R
KINGMAN        MOCLDY    38  34  85 CALM      30.10S
FLAGSTAFF      CLOUDY    42  31  64 NW6       30.12R

$$

REGIONAL REPORTS    NEVADA/IDAHO/WYOMING

CITY           SKY/WX    TMP DP  RH WIND       PRES   REMARKS
LAS VEGAS, NV  CLOUDY    51  39  63 SW3       30.04R
ELY            CLOUDY    46  38  73 CALM      30.17R
ELKO           CLOUDY    47  43  86 W17       30.12R
POCATELLO, ID  CLOUDY    36  35  96 SW20      29.98R WCI  25
BURLEY         MOCLDY    37  32  82 W22G33    30.00S WCI  26
EVANSTON, WY   LGT SNOW  34  28  79 NW18G41   29.96R WCI  23
ROCK SPRINGS   LGT SNOW  30  29  96 W26G35    29.80S FOG     WCI  16
KEMMERER       CLOUDY    32  28  86 W31G37    29.87R WCI  17

$$



USA.gov is the U.S. government's official web portal to all federal, state and local government web resources and services.